This demonstration page uses our WeatherBlox Daily Observations layout. Learn more.

Left ArrowRight Arrow

Hourly Observations for March 11, 2017

Temp ( °F °C ) Dew Point ( °F °C ) Humidity (%) Winds ( mph kmh ) Pressure ( in mb ) Visibility ( mi km ) Precip ( " mm )
12:52 am 00:52 Cloudy with Light Rain 39 3.9 27 -2.8 62 62 ENE 10 17 30.29 1026 9 14 0.03 0.76
1:52 am 01:52 Cloudy with Light Rain 36 2.2 29 -1.7 76 76 NE 10 17 30.33 1027 6 10 0.04 1.02
2:52 am 02:52 Cloudy with Light Rain 34 1.1 31 -0.6 89 89 ENE 13 20 30.31 1027 10 16 0.04 1.02
3:52 am 03:52 Cloudy with Light Rain 34 1.1 30 -1.1 85 85 ENE 14 22 30.31 1027 7 11 0.04 1.02
4:52 am 04:52 Cloudy with Light Rain 34 1.1 31 -0.6 89 89 E 9 15 30.30 1026 10 16 0.01 0.25
5:52 am 05:52 Cloudy 34 1.1 31 -0.6 89 89 E 10 17 30.33 1027 10 16 0.00 0.03
6:31 am 06:31 Cloudy 34 1.1 31 -0.6 89 89 E 10 17 30.39 1029 10 16 0.00 0.00
6:41 am 06:41 Cloudy 34 1.1 31 -0.6 89 89 E 14 22 30.36 1028 10 16 0.00 0.00
6:52 am 06:52 Cloudy 34 1.1 30 -1.1 85 85 ENE 10 17 30.34 1028 10 16 0.00 0.00
7:52 am 07:52 Cloudy 34 1.1 30 -1.1 85 85 E 12 19 30.35 1028 10 16 0.00 0.00
8:52 am 08:52 Cloudy 34 1.1 30 -1.1 85 85 E 14 22 30.37 1029 10 16 0.00 0.00
9:52 am 09:52 Cloudy 35 1.7 30 -1.1 82 82 E 13 20 30.38 1029 10 16 0.00 0.00
10:52 am 10:52 Cloudy 34 1.1 29 -1.7 82 82 E 15 24 30.39 1029 10 16 0.00 0.00
11:52 am 11:52 Cloudy 35 1.7 27 -2.8 72 72 E 15 24 30.38 1029 10 16 0.00 0.00
12:21 pm 12:21 Cloudy 35 1.7 26 -3.3 70 70 E 12 19 30.45 1031 10 16 0.00 0.00
12:52 pm 12:52 Cloudy 35 1.7 26 -3.3 70 70 E 10 17 30.41 1030 10 16 0.00 0.00
1:27 pm 13:27 Cloudy 35 1.7 26 -3.3 70 70 ENE 15 24 30.42 1030 10 16 0.00 0.00
1:36 pm 13:36 Cloudy 36 2 27 -3 70 70 ENE 16 26 30.39 1029 10 16 0.00 0.00
1:52 pm 13:52 Cloudy 35 1.7 26 -3.3 70 70 E 14 22 30.39 1029 10 16 0.00 0.00
2:52 pm 14:52 Cloudy 36 2.2 26 -3.3 67 67 ENE 9 15 30.39 1029 10 16 0.00 0.00
3:04 pm 15:04 Cloudy 36 2 27 -3 70 70 ENE 10 17 30.39 1029 10 16 0.00 0.00
3:52 pm 15:52 Cloudy 36 2.2 26 -3.3 67 67 ENE 5 7 30.40 1029 10 16 0.00 0.00
4:18 pm 16:18 Cloudy 37 3 27 -3 65 65 NE 7 11 30.39 1029 10 16 0.00 0.00
4:52 pm 16:52 Cloudy 37 2.8 22 -5.6 54 54 NE 8 13 30.40 1029 10 16 0.00 0.00
5:52 pm 17:52 Cloudy 37 2.8 21 -6.1 52 52 NE 7 11 30.39 1029 10 16 0.00 0.00
6:52 pm 18:52 Mostly Cloudy 36 2.2 24 -4.4 62 62 NNE 8 13 30.40 1030 10 16 0.00 0.00
7:52 pm 19:52 Cloudy 35 1.7 27 -2.8 72 72 NE 10 17 30.43 1030 10 16 0.00 0.00
8:52 pm 20:52 Clear 33 0.6 26 -3.3 75 75 NNE 7 11 30.45 1031 10 16 0.00 0.00
9:52 pm 21:52 Mostly Cloudy 32 0 27 -2.8 82 82 NNE 8 13 30.47 1032 10 16 0.00 0.00
10:52 pm 22:52 Cloudy 33 0.6 26 -3.3 75 75 NE 9 15 30.47 1032 10 16 0.00 0.00
11:52 pm 23:52 Cloudy 33 0.6 26 -3.3 75 75 NNE 12 19 30.47 1032 10 16 0.00 0.00

Powered by AerisWeather